Weather History for KNFL - November, 2012

Change the Weather History Date:

Sunday, November 25, 2012

  Actual Average Record
Temperature  
Mean Temperature 40 °F -  
Max Temperature 57 °F 51 °F 68 °F (1949)
Min Temperature 23 °F 22 °F 3 °F (1993)
Degree Days  
Heating Degree Days 25    
Moisture  
Dew Point 18 °F    
Average Humidity 47    
Maximum Humidity 67    
Minimum Humidity 26    
Precipitation  
Precipitation 0.00 in - - ()
Sea Level Pressure  
Sea Level Pressure 29.98 in    
Wind  
Wind Speed 2 mph (ESE)    
Max Wind Speed 8 mph    
Max Gust Speed 38 mph    
Visibility 10 miles    
Events      
Averages and records for this station are not official NWS values.
T = Trace of Precipitation, MM = Missing Value Source: NWS Daily Summary

Daily Weather History Graph

Daily Weather History Graph

Search for Another Location

Airport or City:

Trip Planner

Search our weather history database for the weather conditions in past years. The results will help you decide how hot, cold, wet, or windy it might be!

Date:

Astronomy

Nov. 25, 2012 Rise Set
Actual Time 6:50 AM PST 4:33 PM PST
Civil Twilight 6:20 AM PST 5:02 PM PST
Nautical Twilight 5:47 AM PST 5:35 PM PST
Astronomical Twilight 5:15 AM PST 6:08 PM PST
Moon 2:52 PM PST (11/25) 4:09 AM PST (11/25)
Length of Visible Light 10h 42m
Length of Day
9h 43m
Waxing Gibbous, 93% of the Moon is Illuminated
Nov 25
Waxing Gibbous
Nov 28
Full
Dec 6
Last Quarter
Dec 13
New
Dec 19
First Quarter

Hourly Weather History & Observations

Time (PST) Temp. Windchill Dew Point Humidity Pressure Visibility Wind Dir Wind Speed Gust Speed Precip Events Conditions
12:56 AM 26.1 °F - 14.0 °F 60% 29.97 in 10.0 mi Calm Calm - N/A   Clear
1:56 AM 25.0 °F - 10.9 °F 55% 29.96 in 10.0 mi Calm Calm - N/A   Clear
2:56 AM 23.0 °F - 12.9 °F 65% 29.97 in 10.0 mi Calm Calm - N/A   Clear
3:56 AM 23.0 °F 18.4 °F 10.9 °F 60% 29.96 in 10.0 mi South 3.5 mph 38.0 mph N/A   Clear
4:56 AM 23.0 °F - 10.9 °F 60% 29.97 in 10.0 mi Calm Calm - N/A   Clear
5:56 AM 24.1 °F 18.2 °F 14.0 °F 65% 29.98 in 10.0 mi South 4.6 mph - N/A   Clear
6:56 AM 24.1 °F 19.7 °F 12.9 °F 62% 29.99 in 10.0 mi South 3.5 mph - N/A   Clear
7:56 AM 30.9 °F 26.2 °F 15.1 °F 52% 29.99 in 10.0 mi South 4.6 mph - N/A   Clear
8:56 AM 39.0 °F 36.8 °F 19.0 °F 45% 30.00 in 10.0 mi South 3.5 mph - N/A   Clear
9:56 AM 46.9 °F - 19.9 °F 34% 30.00 in 10.0 mi NNE 4.6 mph - N/A   Clear
10:56 AM 50.0 °F - 21.9 °F 33% 29.99 in 10.0 mi NE 4.6 mph - N/A   Clear
11:01 AM 50.0 °F - 21.2 °F 32% 30.08 in 10.0 mi NNE 4.6 mph - N/A   Mostly Cloudy
11:56 AM 53.1 °F - 25.0 °F 34% 29.97 in 10.0 mi North 5.8 mph - N/A   Mostly Cloudy
12:56 PM 55.0 °F - 23.0 °F 29% 29.96 in 10.0 mi North 5.8 mph - N/A   Mostly Cloudy
1:56 PM 57.0 °F - 21.9 °F 26% 29.95 in 10.0 mi NNE 6.9 mph - N/A   Mostly Cloudy
2:56 PM 57.9 °F - 23.0 °F 26% 29.94 in 10.0 mi North 5.8 mph - N/A   Scattered Clouds
3:56 PM 57.0 °F - 23.0 °F 27% 29.94 in 10.0 mi North 3.5 mph - N/A   Partly Cloudy
4:56 PM 51.1 °F - 24.1 °F 35% 29.93 in 10.0 mi Calm Calm - N/A   Partly Cloudy
5:56 PM 43.0 °F - 19.0 °F 38% 29.94 in 10.0 mi Calm Calm - N/A   Clear
6:56 PM 39.9 °F 37.8 °F 19.9 °F 45% 29.96 in 10.0 mi WNW 3.5 mph - N/A   Clear
7:56 PM 39.0 °F - 21.0 °F 49% 29.99 in 10.0 mi Calm Calm - N/A   Clear
8:56 PM 32.0 °F 28.7 °F 17.1 °F 54% 29.99 in 10.0 mi SSE 3.5 mph - N/A   Clear
9:56 PM 32.0 °F 28.7 °F 19.9 °F 61% 30.01 in 10.0 mi South 3.5 mph - N/A   Clear
10:56 PM 32.0 °F 28.7 °F 21.9 °F 66% 30.02 in 10.0 mi SSE 3.5 mph - N/A   Clear
11:56 PM 28.9 °F 21.1 °F 19.0 °F 67% 30.01 in 10.0 mi South 8.1 mph - N/A   Clear